STARLINK-35504 (66325 NORAD) Tracking and Keplerian Element Data

This shows tracking and keplerian element data for the satellite.

Feedback or suggestion? Click here.




ElementValue
Catalog66325
NameSTARLINK-35504
Epoch Orbit806
Epoch Day354.13296256
Epoch Year2025
RAAN302.9897
Inclination43.0013
Eccentricity5.54E-05
Argument of Perigee235.3838
Mean Anonmoly124.6966
Mean Motion15.40723683
Decay Rate0.00035357
L11 66325U 25253G 25354.13296256 .00035357 00000+0 84910-3 0 9999
L22 66325 43.0013 302.9897 0000554 235.3838 124.6966 15.40723683 8066



Live tracking and technical data element details for STARLINK-35504 (NORAD 66325). STARLINK-35504 can be tracked NOW for your location showing map with azimuth and elevation plus other details from your city location.







IsCatalogInMostPopularTable: catalog: 66325, numindb: 8
Update: records affected: 1



GetName: 66325 STARLINK-35504

Hit Count: updated at: Mon, 20 Apr 2026 09:03:14 GMT